TOM3ET EGKK-GCTS

Flight info

Callsign TOM3ET
Flight time N/A
Altitude 39000
Route NOVMA L620 SAM M195 LORKU DCT LOTEE DCT PINEK/N0491F410 DCT BEXAL UN866 KONBA
Aircraft B789/H-SDE1E2E3FGHIJ2J3J4J5M1RWXY/LB1D1

Departure

Time N/A
Airport London Gatwick Airport (EGKK)

Arrival

Time 2026-05-03 23:34
Airport Tenerife Sur Airport (GCTS)
Time Latitude Longitude Altitude Speed Heading
2026-05-03 22:50 30.59748 -15.65023 41174 ft 424 kts 217°
2026-05-03 22:50 30.57223 -15.66858 41168 ft 423 kts 217°
2026-05-03 22:51 30.52272 -15.70455 41165 ft 424 kts 217°
2026-05-03 22:51 30.47254 -15.74095 41169 ft 426 kts 217°
2026-05-03 22:52 30.42227 -15.77735 41172 ft 426 kts 217°
2026-05-03 22:52 30.37198 -15.81374 41171 ft 426 kts 217°
2026-05-03 22:53 30.32174 -15.85004 41170 ft 426 kts 217°
2026-05-03 22:53 30.27153 -15.88628 41170 ft 425 kts 217°
2026-05-03 22:54 30.22133 -15.92246 41157 ft 425 kts 217°
2026-05-03 22:54 30.17111 -15.95862 41156 ft 425 kts 217°
2026-05-03 22:55 30.12092 -15.99471 41160 ft 425 kts 217°
2026-05-03 22:55 30.07117 -16.03044 41159 ft 423 kts 217°
2026-05-03 22:56 30.02122 -16.06627 41160 ft 422 kts 217°
2026-05-03 22:56 29.97119 -16.10212 41159 ft 424 kts 217°
2026-05-03 22:57 29.92108 -16.13797 41158 ft 423 kts 217°
2026-05-03 22:57 29.87106 -16.17374 41157 ft 422 kts 217°
2026-05-03 22:58 29.82955 -16.20337 41158 ft 421 kts 217°
2026-05-03 22:58 29.77969 -16.23893 41152 ft 421 kts 217°
2026-05-03 22:59 29.72983 -16.27446 41154 ft 422 kts 217°
2026-05-03 22:59 29.67967 -16.31015 41159 ft 424 kts 217°
2026-05-03 23:00 29.62940 -16.34587 41156 ft 425 kts 217°
2026-05-03 23:00 29.58050 -16.38315 41178 ft 417 kts 224°
2026-05-03 23:01 29.53618 -16.42496 39951 ft 405 kts 224°
2026-05-03 23:01 29.51516 -16.44478 39818 ft 389 kts 224°
2026-05-03 23:01 29.49433 -16.46448 39487 ft 391 kts 224°
2026-05-03 23:01 29.47314 -16.48455 39010 ft 397 kts 224°
2026-05-03 23:02 29.45183 -16.50460 38492 ft 394 kts 224°
2026-05-03 23:02 29.43069 -16.52444 38012 ft 390 kts 224°
2026-05-03 23:02 29.40985 -16.54406 37551 ft 384 kts 224°
2026-05-03 23:02 29.38959 -16.56312 37095 ft 371 kts 224°
2026-05-03 23:03 29.36964 -16.58192 36670 ft 375 kts 224°
2026-05-03 23:03 29.34919 -16.60122 36212 ft 381 kts 224°
2026-05-03 23:03 29.32928 -16.61979 35755 ft 360 kts 224°
2026-05-03 23:03 29.30982 -16.63805 35350 ft 363 kts 224°
2026-05-03 23:04 29.29013 -16.65663 34909 ft 369 kts 224°
2026-05-03 23:04 29.27041 -16.67512 34416 ft 363 kts 223°
2026-05-03 23:04 29.25068 -16.69358 33920 ft 369 kts 223°
2026-05-03 23:04 29.23069 -16.71233 33354 ft 373 kts 223°
2026-05-03 23:05 29.21060 -16.73115 32809 ft 374 kts 223°
2026-05-03 23:05 29.19045 -16.75000 32202 ft 375 kts 223°
2026-05-03 23:05 29.17025 -16.76888 31619 ft 370 kts 223°
2026-05-03 23:05 29.15061 -16.78721 31044 ft 362 kts 223°
2026-05-03 23:06 29.13087 -16.80571 30485 ft 372 kts 223°
2026-05-03 23:06 29.11055 -16.82473 29901 ft 381 kts 222°
2026-05-03 23:06 29.08994 -16.84393 29278 ft 382 kts 222°
2026-05-03 23:06 29.06958 -16.86289 28669 ft 383 kts 222°
2026-05-03 23:07 29.04891 -16.88217 28065 ft 383 kts 222°
2026-05-03 23:07 29.02825 -16.90145 27469 ft 385 kts 222°
2026-05-03 23:07 29.00753 -16.92075 26868 ft 379 kts 222°
2026-05-03 23:07 28.98789 -16.93895 26248 ft 350 kts 222°
2026-05-03 23:08 28.96941 -16.95614 25652 ft 336 kts 223°
2026-05-03 23:08 28.95157 -16.97279 25081 ft 327 kts 223°
2026-05-03 23:08 28.93401 -16.98916 24533 ft 326 kts 223°
2026-05-03 23:08 28.91640 -17.00552 24004 ft 327 kts 223°
2026-05-03 23:09 28.89878 -17.02188 23452 ft 326 kts 223°
2026-05-03 23:09 28.88146 -17.03795 22877 ft 323 kts 223°
2026-05-03 23:09 28.86403 -17.05413 22304 ft 321 kts 222°
2026-05-03 23:09 28.84667 -17.07024 21758 ft 326 kts 222°
2026-05-03 23:10 28.82899 -17.08665 21229 ft 327 kts 222°
2026-05-03 23:10 28.81140 -17.10293 20679 ft 324 kts 222°
2026-05-03 23:10 28.79392 -17.11911 20164 ft 322 kts 222°
2026-05-03 23:10 28.77661 -17.13515 19650 ft 320 kts 222°
2026-05-03 23:11 28.75942 -17.15107 19140 ft 317 kts 222°
2026-05-03 23:11 28.74234 -17.16687 18639 ft 315 kts 222°
2026-05-03 23:11 28.72532 -17.18260 18095 ft 313 kts 222°
2026-05-03 23:11 28.70844 -17.19820 17514 ft 311 kts 222°
2026-05-03 23:12 28.69169 -17.21368 16953 ft 309 kts 221°
2026-05-03 23:12 28.67507 -17.22903 16400 ft 307 kts 221°
2026-05-03 23:12 28.65856 -17.24428 15861 ft 304 kts 221°
2026-05-03 23:12 28.64216 -17.25942 15330 ft 302 kts 221°
2026-05-03 23:13 28.62586 -17.27445 14820 ft 300 kts 221°
2026-05-03 23:13 28.60989 -17.28917 14321 ft 298 kts 221°
2026-05-03 23:13 28.59389 -17.30391 13847 ft 294 kts 221°
2026-05-03 23:13 28.57796 -17.31839 13321 ft 291 kts 221°
2026-05-03 23:14 28.56218 -17.33261 12848 ft 287 kts 221°
2026-05-03 23:14 28.54683 -17.34702 12417 ft 285 kts 222°
2026-05-03 23:14 28.53157 -17.36142 11992 ft 285 kts 221°
2026-05-03 23:14 28.51617 -17.37555 11573 ft 284 kts 221°
2026-05-03 23:15 28.50077 -17.38958 11158 ft 284 kts 221°
2026-05-03 23:15 28.48358 -17.40032 10789 ft 288 kts 197°
2026-05-03 23:15 28.46351 -17.40259 10449 ft 295 kts 176°
2026-05-03 23:15 28.44367 -17.39633 10120 ft 298 kts 161°
2026-05-03 23:16 28.42442 -17.38761 9746 ft 298 kts 160°
2026-05-03 23:16 28.40529 -17.37868 9365 ft 296 kts 160°
2026-05-03 23:16 28.38643 -17.37016 8998 ft 295 kts 161°
2026-05-03 23:16 28.36737 -17.36168 8628 ft 293 kts 161°
2026-05-03 23:17 28.34813 -17.35494 8237 ft 287 kts 179°
2026-05-03 23:17 28.32933 -17.35991 8142 ft 275 kts 208°
2026-05-03 23:17 28.31234 -17.37032 8130 ft 280 kts 207°
2026-05-03 23:17 28.29306 -17.37408 8133 ft 286 kts 182°
2026-05-03 23:18 28.27305 -17.37296 8130 ft 289 kts 177°
2026-05-03 23:18 28.25300 -17.37075 8133 ft 289 kts 176°
2026-05-03 23:18 28.23301 -17.36831 8123 ft 289 kts 176°
2026-05-03 23:18 28.21303 -17.36581 8121 ft 289 kts 176°
2026-05-03 23:19 28.19300 -17.36330 8122 ft 289 kts 176°
2026-05-03 23:19 28.17302 -17.36079 8128 ft 289 kts 176°
2026-05-03 23:19 28.15303 -17.35828 8128 ft 289 kts 176°
2026-05-03 23:19 28.13308 -17.35577 8125 ft 289 kts 176°
2026-05-03 23:20 28.11319 -17.35326 8033 ft 286 kts 176°
2026-05-03 23:20 28.09362 -17.35074 7697 ft 287 kts 176°
2026-05-03 23:20 28.07380 -17.34812 7441 ft 286 kts 174°
2026-05-03 23:20 28.05431 -17.34330 7151 ft 286 kts 167°
2026-05-03 23:21 28.03531 -17.33741 7129 ft 283 kts 166°
2026-05-03 23:21 28.01692 -17.32926 7090 ft 289 kts 145°
2026-05-03 23:21 28.00235 -17.31352 7050 ft 290 kts 134°
2026-05-03 23:21 27.98900 -17.29643 7047 ft 290 kts 132°
2026-05-03 23:22 27.96132 -17.26388 6183 ft 287 kts 137°
2026-05-03 23:22 27.94708 -17.24832 5671 ft 284 kts 135°
2026-05-03 23:22 27.93318 -17.23259 5172 ft 281 kts 134°
2026-05-03 23:23 27.91964 -17.21712 5035 ft 274 kts 134°
2026-05-03 23:23 27.90605 -17.20170 5039 ft 279 kts 134°
2026-05-03 23:23 27.89229 -17.18619 5043 ft 279 kts 134°
2026-05-03 23:23 27.87853 -17.17067 5042 ft 279 kts 134°
2026-05-03 23:24 27.86479 -17.15513 5034 ft 279 kts 134°
2026-05-03 23:24 27.85185 -17.13885 5026 ft 279 kts 120°
2026-05-03 23:24 27.84600 -17.11815 5033 ft 277 kts 92°
2026-05-03 23:24 27.84880 -17.09707 4891 ft 270 kts 68°
2026-05-03 23:25 27.85593 -17.07731 4491 ft 271 kts 64°
2026-05-03 23:25 27.86358 -17.05807 4215 ft 267 kts 64°
2026-05-03 23:25 27.87100 -17.03887 3932 ft 265 kts 65°
2026-05-03 23:25 27.87929 -17.02046 3565 ft 262 kts 49°
2026-05-03 23:26 27.89132 -17.00565 3199 ft 259 kts 53°
2026-05-03 23:26 27.90000 -16.98794 3034 ft 255 kts 64°
2026-05-03 23:26 27.90669 -16.96928 2826 ft 258 kts 67°
2026-05-03 23:26 27.91331 -16.95034 2530 ft 258 kts 67°
2026-05-03 23:27 27.91982 -16.93161 2548 ft 257 kts 67°
2026-05-03 23:27 27.92622 -16.91320 2522 ft 242 kts 67°
2026-05-03 23:27 27.93209 -16.89624 2506 ft 223 kts 67°
2026-05-03 23:27 27.93756 -16.88046 2508 ft 211 kts 67°
2026-05-03 23:28 27.94287 -16.86514 2509 ft 208 kts 67°
2026-05-03 23:28 27.94802 -16.85031 2548 ft 193 kts 67°
2026-05-03 23:28 27.95285 -16.83638 2521 ft 189 kts 67°
2026-05-03 23:28 27.95760 -16.82269 2537 ft 186 kts 66°
2026-05-03 23:29 27.96227 -16.80926 2527 ft 186 kts 66°
2026-05-03 23:29 27.96695 -16.79578 2543 ft 184 kts 66°
2026-05-03 23:29 27.97163 -16.78229 2543 ft 184 kts 66°
2026-05-03 23:29 27.97632 -16.76879 2527 ft 184 kts 66°
2026-05-03 23:30 27.98092 -16.75555 2518 ft 176 kts 66°
2026-05-03 23:30 27.98524 -16.74307 2518 ft 167 kts 66°
2026-05-03 23:30 27.98945 -16.73093 2532 ft 165 kts 66°
2026-05-03 23:30 27.99363 -16.71888 2531 ft 164 kts 66°
2026-05-03 23:31 27.99772 -16.70712 2400 ft 152 kts 66°
2026-05-03 23:31 28.00145 -16.69635 2211 ft 144 kts 66°
2026-05-03 23:31 28.00497 -16.68612 2042 ft 138 kts 66°
2026-05-03 23:31 28.00850 -16.67600 1848 ft 135 kts 66°
2026-05-03 23:32 28.01198 -16.66594 1679 ft 138 kts 66°
2026-05-03 23:32 28.01542 -16.65613 1474 ft 133 kts 67°
2026-05-03 23:32 28.01885 -16.64622 1311 ft 137 kts 67°
2026-05-03 23:32 28.02222 -16.63650 1136 ft 131 kts 68°
2026-05-03 23:33 28.02557 -16.62667 952 ft 133 kts 69°
2026-05-03 23:33 28.02897 -16.61689 798 ft 135 kts 69°
2026-05-03 23:33 28.03240 -16.60707 584 ft 129 kts 70°
2026-05-03 23:33 28.03568 -16.59756 408 ft 130 kts 68°
2026-05-03 23:34 28.03910 -16.58788 249 ft 133 kts 69°
2026-05-03 23:34 28.04209 -16.57927 210 ft 90 kts 69°
2026-05-03 23:34 28.04362 -16.57488 213 ft 40 kts 68°
2026-05-03 23:34 28.04465 -16.57196 218 ft 42 kts 68°
2026-05-03 23:35 28.04622 -16.56918 218 ft 41 kts 47°
2026-05-03 23:35 28.04759 -16.56771 218 ft 13 kts 13°
2026-05-03 23:35 28.04795 -16.56783 216 ft 1 kts 304°
2026-05-03 23:35 28.04795 -16.56797 222 ft 3 kts 265°
2026-05-03 23:36 28.04779 -16.56855 216 ft 13 kts 249°
2026-05-03 23:36 28.04733 -16.56991 212 ft 24 kts 249°
2026-05-03 23:36 28.04699 -16.57120 210 ft 9 kts 283°
2026-05-03 23:36 28.04737 -16.57150 217 ft 8 kts 332°
2026-05-03 23:37 28.04754 -16.57174 221 ft 1 kts 276°
2026-05-03 23:37 28.04750 -16.57181 219 ft 1 kts 236°
2026-05-03 23:37 28.04730 -16.57202 219 ft 10 kts 222°
2026-05-03 23:37 28.04636 -16.57301 217 ft 23 kts 228°
2026-05-03 23:38 28.04592 -16.57448 213 ft 10 kts 313°
2026-05-03 23:38 28.04661 -16.57481 212 ft 10 kts 341°
2026-05-03 23:38 28.04688 -16.57488 216 ft 3 kts 342°
2026-05-03 23:38 28.04736 -16.57503 209 ft 7 kts 351°
2026-05-03 23:39 28.04763 -16.57504 207 ft 3 kts
2026-05-03 23:39 28.04773 -16.57503 212 ft 0 kts